TimeEST,TemperatureF,Dew PointF,Humidity,Sea Level PressureIn,VisibilityMPH,Wind Direction,Wind SpeedMPH,Gust SpeedMPH,PrecipitationIn,Events,Conditions,WindDirDegrees,DateUTC
12:56 AM,27.0,24.1,89,30.34,8.0,Calm,Calm,-,N/A,,Clear,0,2012-11-30 05:56:00
1:56 AM,28.0,24.1,85,30.35,9.0,WSW,3.5,-,N/A,,Clear,250,2012-11-30 06:56:00
2:56 AM,26.1,23.0,88,30.35,8.0,Calm,Calm,-,N/A,,Clear,0,2012-11-30 07:56:00
3:56 AM,26.1,23.0,88,30.35,7.0,Calm,Calm,-,N/A,,Clear,0,2012-11-30 08:56:00
4:56 AM,25.0,21.9,88,30.35,7.0,Calm,Calm,-,N/A,,Clear,0,2012-11-30 09:56:00
5:56 AM,26.1,23.0,88,30.37,8.0,Calm,Calm,-,N/A,,Mostly Cloudy,0,2012-11-30 10:56:00
6:56 AM,28.0,25.0,88,30.38,7.0,Calm,Calm,-,N/A,,Overcast,0,2012-11-30 11:56:00
7:56 AM,28.9,26.1,89,30.39,6.0,Calm,Calm,-,N/A,,Partly Cloudy,0,2012-11-30 12:56:00
8:56 AM,33.1,28.0,82,30.39,6.0,Calm,Calm,-,N/A,,Haze,0,2012-11-30 13:56:00
9:56 AM,37.0,30.0,76,30.40,6.0,Calm,Calm,-,N/A,,Haze,0,2012-11-30 14:56:00
10:56 AM,42.1,28.0,58,30.38,9.0,Calm,Calm,-,N/A,,Clear,0,2012-11-30 15:56:00
11:56 AM,45.0,30.0,56,30.36,8.0,ESE,3.5,-,N/A,,Mostly Cloudy,110,2012-11-30 16:56:00
12:56 PM,48.0,30.0,50,30.35,9.0,ESE,4.6,-,N/A,,Clear,120,2012-11-30 17:56:00
1:56 PM,48.0,27.0,44,30.34,10.0,ESE,5.8,-,N/A,,Clear,110,2012-11-30 18:56:00
2:56 PM,48.0,26.1,42,30.33,10.0,ESE,8.1,-,N/A,,Scattered Clouds,110,2012-11-30 19:56:00
3:56 PM,46.0,27.0,47,30.33,10.0,ESE,5.8,-,N/A,,Clear,110,2012-11-30 20:56:00
4:56 PM,43.0,28.0,56,30.35,10.0,ESE,5.8,-,N/A,,Clear,110,2012-11-30 21:56:00
5:56 PM,42.1,28.9,60,30.36,10.0,East,5.8,-,N/A,,Clear,100,2012-11-30 22:56:00
6:56 PM,42.1,27.0,55,30.36,10.0,SE,5.8,-,N/A,,Partly Cloudy,130,2012-11-30 23:56:00
7:56 PM,41.0,28.0,60,30.37,10.0,ESE,4.6,-,N/A,,Mostly Cloudy,110,2012-12-01 00:56:00
8:56 PM,39.0,27.0,62,30.38,10.0,East,4.6,-,N/A,,Partly Cloudy,100,2012-12-01 01:56:00
10:56 PM,37.0,28.9,73,30.39,9.0,ESE,3.5,-,N/A,,Partly Cloudy,110,2012-12-01 03:56:00
11:56 PM,37.9,28.9,70,30.40,9.0,Calm,Calm,-,N/A,,Clear,0,2012-12-01 04:56:00